[[{"header":{"parameterUnit":"m.s-1","parameterCategory":1,"la1":30.2991,"la2":30.254,"lo1":-89.0895,"lo2":-89.0444,"dy":0.0017,"dx":0.0017,"nx":28,"ny":28,"refTime":"2025-07-28T03:00:00:Z","depth":0,"parameterNumber":2,"parameterNumberName":"U-component_of_WINDS"},"data":[0,0,0,0,0,0,0,0,0,0,0,0,0,0,0,0,0,0,0,0,0,0,0,0,0,0,0,0,0,0,0,0,0,0,0,0,0,0,0,0,0,0,0,0,0,0,0,0,0,0,0,0,0,0,0,0,0,0,2.4835,2.4837,0,2.498,2.4982,2.4984,2.4943,2.494,2.4937,2.4934,2.5091,2.5097,2.5104,0,0,0,0,0,0,0,0,0,0,0,0,0,2.4531,2.4537,2.4835,2.4837,2.4839,2.498,2.4982,2.4984,2.4943,2.4939,2.4936,2.4932,2.5088,2.5096,2.5105,0,0,0,0,0,0,0,0,0,0,0,0,0,2.4669,2.4539,2.4835,2.4835,2.4837,2.498,2.4982,2.4985,2.4944,2.4939,2.4935,2.4931,2.5086,2.5096,2.5106,2.526,0,0,2.5138,2.5142,0,0,0,0,0,0,0,0,2.4661,2.468,2.4833,2.4835,2.4837,2.4938,2.4932,2.5077,2.4945,2.4903,2.4934,2.4929,2.5044,2.5058,2.5095,2.5267,2.5274,2.5139,2.5145,2.515,2.5153,0,0,0,0,0,0,0,2.4652,2.4674,2.4893,2.4836,2.4838,2.4831,2.4845,2.496,2.4997,2.4907,2.4904,2.4921,2.5044,2.5085,2.5098,2.5276,2.5138,2.5148,2.5154,2.5158,2.5584,2.5589,0,0,0,0,0,0,2.4639,2.4666,2.4888,2.4897,2.4736,2.484,2.4856,2.4911,2.4996,2.5004,2.4925,2.4919,2.5069,2.5086,2.5104,2.529,2.5149,2.5159,2.5165,2.5579,2.5585,2.559,0,0,0,0,0,0,2.4633,2.466,2.4882,2.4781,2.4809,2.485,2.4911,2.4916,2.4956,2.501,2.5017,2.4959,2.5067,2.5089,2.5221,2.5295,2.5164,2.5173,2.5573,2.5581,2.5588,2.5663,0,0,0,0,0,0,2.4625,2.4658,2.4714,2.4782,2.4814,2.4995,2.4916,2.4922,2.4973,2.4967,2.5043,2.5052,2.5065,2.5206,2.5231,2.5307,2.5182,2.5566,2.5576,2.5585,2.5654,2.5672,2.5688,0,0,0,0,0,2.4614,2.4731,2.4717,2.4744,2.4885,2.4999,2.5017,2.5027,2.4979,2.5038,2.5073,2.505,2.5283,2.522,2.5248,2.5328,2.5562,2.5573,2.5584,2.5647,2.5669,2.5687,0,0,0,0,0,0,2.4673,2.474,2.4725,2.4868,2.4928,2.4992,2.5066,2.505,2.5127,2.5118,2.513,2.5148,2.5283,2.5319,2.5247,2.5482,2.5416,2.5433,2.5453,2.5475,2.5491,2.5479,2.519,0,0,0,0,0,2.4703,2.4786,2.4842,2.4962,2.4993,2.5024,2.5074,2.5077,2.514,2.5166,2.521,2.5275,2.5363,2.5421,2.5505,2.566,2.5677,2.5729,2.5745,2.5759,2.5774,2.586,2.5884,2.5628,2.5628,2.5627,0,0,2.4765,2.4812,2.4864,2.4975,2.5022,2.5111,2.5046,2.5143,2.521,2.5182,2.5308,2.5343,2.5417,2.5561,2.5627,2.5595,2.5849,2.5773,2.5784,2.5792,2.5874,2.5898,2.592,2.5635,2.5634,2.5633,0,0,2.4923,2.4967,2.5072,2.512,2.519,2.5211,2.5236,2.5303,2.5325,2.5451,2.5432,2.5514,2.5665,2.5718,2.5765,2.5945,2.5927,2.5973,2.606,2.6144,2.6164,2.6182,2.6247,2.627,2.5988,2.5988,2.5988,0,2.4992,2.5122,2.5129,2.5227,2.5277,2.5254,2.5362,2.5409,2.5505,2.5542,2.5504,2.5694,2.5742,2.5898,2.5942,2.5981,2.6012,2.5964,2.616,2.6178,2.6195,2.6257,2.6281,2.5993,2.5992,2.5992,2.5991,0,2.5204,2.5296,2.5373,2.5463,2.5522,2.5625,2.565,2.571,2.5708,2.5733,2.5864,2.592,2.6015,2.6053,2.6053,2.6211,2.6189,2.6156,2.6089,2.6224,2.6283,2.6307,2.6,2.5998,2.5997,2.5996,0,0,2.5403,2.5495,2.5523,2.5564,2.5642,2.5714,2.5818,2.5908,2.5959,2.6027,2.6115,2.6244,2.6214,2.6268,2.6274,2.6347,2.6487,2.6305,2.6307,2.6337,2.6665,2.6689,2.6716,2.6476,2.648,2.6484,2.6659,0,2.5568,2.5746,2.5755,2.5918,2.6004,2.5984,2.6074,2.6133,2.616,2.6239,2.627,2.6361,2.6314,2.6347,2.6418,2.6455,2.6553,2.6442,2.656,2.6564,2.6541,2.6747,2.6772,2.6934,2.6682,2.6686,2.6689,0,2.5783,2.5855,2.6026,2.6091,2.6128,2.6208,2.6293,2.6368,2.6435,2.645,2.651,2.6506,2.6615,2.6545,2.6696,2.6621,2.667,2.6696,2.6702,2.6713,2.6634,2.6763,2.6986,2.701,2.6725,2.6722,2.6719,0,2.5911,2.6051,2.6171,2.6207,2.6286,2.6344,2.638,2.6443,2.6497,2.6572,2.6608,2.6696,2.6744,2.6814,2.6835,2.6782,2.6987,2.6918,2.7003,2.7003,2.7047,2.7044,2.728,2.7079,2.7079,2.7079,2.7078,0,2.6093,2.6199,2.6229,2.6303,2.6422,2.6433,2.6551,2.6585,2.6641,2.6723,2.6713,2.6791,2.6814,2.6897,2.6915,2.7038,2.706,2.7077,2.708,2.7078,2.7075,2.7109,2.7099,2.7085,2.7084,2.7082,2.7081,0,2.6255,2.628,2.6409,2.6474,2.6493,2.6578,2.6634,2.6707,2.6733,2.6837,2.6863,2.6904,2.7002,2.703,2.7148,2.716,2.7304,2.7298,2.728,2.728,2.7364,2.7356,2.7631,2.7668,2.7443,2.7445,2.7447,0,2.637,2.645,2.6523,2.6576,2.6614,2.67,2.6755,2.6771,2.6829,2.6912,2.6976,2.7071,2.7148,2.7305,2.7348,2.7438,2.7434,2.7524,2.7447,2.7442,2.7435,2.743,2.7438,2.7538,2.7541,2.7542,2.7544,0,2.657,2.6578,2.6656,2.6739,2.6805,2.6871,2.6936,2.6981,2.7006,2.7073,2.717,2.723,2.735,2.7445,2.7537,2.7578,2.7567,2.7568,2.7592,2.759,2.7576,2.7585,2.7319,2.7561,2.756,2.7558,2.7557,2.7557,2.6712,2.6782,2.6845,2.6932,2.6982,2.7043,2.7114,2.7148,2.7229,2.7326,2.7331,2.7438,2.7506,2.7628,2.7673,2.7759,2.7733,2.7768,2.7777,2.7786,2.7792,2.7563,2.7776,2.7776,2.7775,2.7775,2.7774,0,2.6911,2.695,2.7031,2.712,2.719,2.7171,2.7242,2.7302,2.7395,2.7458,2.7533,2.7647,2.774,2.779,2.7884,2.7943,2.794,2.7967,2.7963,2.7972,2.781,2.778,2.7968,2.7968,2.7968,2.7968,2.7968,2.7967,2.7023,2.7142,2.7158,2.7302,2.7342,2.7444,2.7486,2.7543,2.7593,2.7719,2.7795,2.7827,2.7885,2.7983,2.8069,2.8081,2.8116,2.8146,2.8156,2.8003,2.7984,2.7965,2.7936,2.8154,2.8154,2.831,2.8312,2.8313]},{"header":{"parameterUnit":"m.s-1","parameterCategory":1,"la1":30.2991,"la2":30.254,"lo1":-89.0895,"lo2":-89.0444,"dy":0.0017,"dx":0.0017,"nx":28,"ny":28,"refTime":"2025-07-28T03:00:00:Z","depth":0,"parameterNumber":3,"parameterNumberName":"V-component_of_WINDS"},"data":[0,0,0,0,0,0,0,0,0,0,0,0,0,0,0,0,0,0,0,0,0,0,0,0,0,0,0,0,0,0,0,0,0,0,0,0,0,0,0,0,0,0,0,0,0,0,0,0,0,0,0,0,0,0,0,0,0,0,1.9096,1.9097,0,1.9222,1.9223,1.9224,1.9167,1.9164,1.9161,1.9158,1.9287,1.9293,1.9299,0,0,0,0,0,0,0,0,0,0,0,0,0,1.8804,1.8809,1.9095,1.9097,1.9099,1.9221,1.9223,1.9225,1.9167,1.9164,1.916,1.9156,1.9285,1.9292,1.93,0,0,0,0,0,0,0,0,0,0,0,0,0,1.893,1.8811,1.9095,1.9085,1.9085,1.9221,1.9223,1.9225,1.9168,1.9164,1.9159,1.9154,1.9282,1.9292,1.9301,1.9454,0,0,1.933,1.9334,0,0,0,0,0,0,0,0,1.8923,1.8941,1.9085,1.9086,1.9086,1.9174,1.9167,1.9302,1.9169,1.9137,1.9158,1.9152,1.9253,1.9265,1.9299,1.946,1.9466,1.9331,1.9337,1.9341,1.9344,0,0,0,0,0,0,0,1.8914,1.8935,1.9145,1.9087,1.9088,1.9073,1.9086,1.9193,1.922,1.9139,1.9135,1.9151,1.9253,1.929,1.9301,1.9468,1.9331,1.9339,1.9345,1.9349,1.9759,1.9764,0,0,0,0,0,0,1.8906,1.8928,1.9141,1.9149,1.8991,1.9082,1.9097,1.915,1.9219,1.9224,1.9155,1.9148,1.9276,1.929,1.9306,1.9488,1.9341,1.935,1.9355,1.9754,1.976,1.9765,0,0,0,0,0,0,1.89,1.8926,1.9136,1.9038,1.9063,1.9093,1.9153,1.9155,1.9192,1.923,1.9235,1.9188,1.9272,1.9292,1.9417,1.9492,1.9354,1.9363,1.9748,1.9756,1.9763,1.9855,0,0,0,0,0,0,1.8892,1.8924,1.8983,1.904,1.9069,1.9247,1.9158,1.9161,1.9209,1.9201,1.9263,1.9268,1.927,1.9403,1.9427,1.9502,1.937,1.9741,1.9751,1.976,1.9845,1.9865,1.9881,0,0,0,0,0,1.8882,1.9004,1.8986,1.9012,1.9144,1.9251,1.9268,1.9268,1.9215,1.9274,1.9298,1.9266,1.948,1.9416,1.9442,1.9522,1.9736,1.9748,1.9759,1.9837,1.9861,1.9881,0,0,0,0,0,0,1.8957,1.9012,1.8992,1.9137,1.919,1.9241,1.9316,1.9293,1.9362,1.9352,1.9348,1.9363,1.9492,1.9519,1.9448,1.9672,1.96,1.9617,1.965,1.9673,1.9691,1.9681,1.9378,0,0,0,0,0,1.899,1.9073,1.9116,1.924,1.9267,1.9287,1.9334,1.9329,1.9384,1.9406,1.9439,1.9493,1.9571,1.9624,1.9699,1.9849,1.986,1.9916,1.9934,1.9949,1.9964,2.0043,2.0067,1.9803,1.9803,1.9803,0,0,1.906,1.91,1.9153,1.9256,1.9296,1.9381,1.9306,1.94,1.9463,1.942,1.9539,1.9566,1.9625,1.9763,1.9825,1.979,2.0039,1.9963,1.9975,1.9982,2.0057,2.0082,2.0104,1.9811,1.981,1.9809,0,0,1.923,1.927,1.9376,1.9417,1.9479,1.9491,1.9516,1.9571,1.9586,1.9706,1.9675,1.9749,1.9886,1.9929,1.9969,2.0153,2.0125,2.0177,2.0272,2.0349,2.037,2.0388,2.0452,2.0475,2.0192,2.0192,2.0193,0,1.9309,1.9436,1.9433,1.9529,1.9575,1.9539,1.9645,1.9686,1.9769,1.9801,1.976,1.9929,1.9967,2.0113,2.0157,2.0191,2.0219,2.017,2.0367,2.0385,2.0402,2.0463,2.0488,2.0198,2.0198,2.0197,2.0196,0,1.9529,1.9618,1.9697,1.9777,1.9831,1.9932,1.9943,1.9999,1.9988,2.0004,2.0126,2.0169,2.0251,2.0286,2.0278,2.043,2.0406,2.0367,2.0293,2.0433,2.0491,2.0514,2.0207,2.0205,2.0203,2.0201,0,0,1.9752,1.9827,1.9856,1.9891,1.9955,2.0023,2.0122,2.0202,2.0248,2.0306,2.0388,2.0503,2.0466,2.0511,2.0507,2.0575,2.0715,2.0526,2.0527,2.0559,2.0884,2.0913,2.094,2.0697,2.0701,2.0705,2.0878,0,1.9925,2.0098,2.0097,2.0256,2.0337,2.0303,2.0389,2.0437,2.0454,2.0524,2.0543,2.0624,2.057,2.0596,2.0662,2.0684,2.078,2.0672,2.0772,2.0775,2.0757,2.097,2.1002,2.1164,2.0901,2.0905,2.0908,0,2.0152,2.0216,2.0383,2.0434,2.0468,2.0545,2.0616,2.0685,2.0738,2.0745,2.0795,2.0779,2.0878,2.0802,2.0936,2.0863,2.0903,2.092,2.0926,2.0935,2.085,2.0984,2.1215,2.1239,2.0943,2.094,2.0938,0,2.0295,2.0424,2.054,2.0571,2.0633,2.0688,2.0716,2.0764,2.0812,2.0874,2.0904,2.0978,2.1018,2.1075,2.1079,2.1023,2.1214,2.1139,2.1222,2.1222,2.1264,2.1261,2.1504,2.1292,2.1291,2.1291,2.129,0,2.0489,2.0592,2.0605,2.0676,2.079,2.0788,2.09,2.0924,2.0966,2.1041,2.1016,2.1086,2.1088,2.1159,2.1163,2.1273,2.1292,2.1299,2.1299,2.1302,2.13,2.1328,2.1316,2.1297,2.1296,2.1294,2.1293,0,2.0669,2.0681,2.0805,2.0853,2.0868,2.095,2.099,2.1058,2.1071,2.1166,2.1188,2.121,2.1292,2.1302,2.1398,2.1401,2.1533,2.1521,2.1515,2.1513,2.1595,2.1587,2.1864,2.1899,2.1664,2.1666,2.1668,0,2.0791,2.087,2.0926,2.0974,2.1005,2.1083,2.113,2.113,2.1181,2.1246,2.1305,2.1385,2.1449,2.1582,2.1606,2.1679,2.1668,2.176,2.1679,2.1678,2.1668,2.1663,2.167,2.1775,2.1778,2.178,2.1782,0,2.1007,2.1009,2.1079,2.1151,2.1208,2.1265,2.1318,2.1359,2.1365,2.1423,2.1506,2.1556,2.1653,2.1732,2.1804,2.1831,2.1808,2.1807,2.183,2.1833,2.1826,2.1829,2.1557,2.1801,2.1799,2.1797,2.1796,2.1796,2.1161,2.1228,2.1278,2.1356,2.1396,2.1446,2.1511,2.1532,2.1602,2.1682,2.1677,2.1769,2.1817,2.1911,2.1944,2.2015,2.1984,2.2018,2.2026,2.2034,2.2042,2.1814,2.2028,2.2027,2.2027,2.2026,2.2026,0,2.1374,2.1404,2.1476,2.1551,2.1612,2.1584,2.164,2.1693,2.1774,2.1822,2.1885,2.198,2.2056,2.2085,2.2159,2.221,2.2201,2.2229,2.2225,2.2232,2.2066,2.2038,2.2236,2.2236,2.2236,2.2236,2.2235,2.2235,2.1492,2.1604,2.1612,2.1743,2.1771,2.1862,2.1896,2.1941,2.1979,2.2086,2.2149,2.2168,2.2207,2.2284,2.2351,2.2358,2.2386,2.2419,2.2421,2.2265,2.2244,2.2224,2.2197,2.2425,2.2426,2.2581,2.2582,2.2583]}]]